EW1714 Weather Reports


Display with metric or nautical units.
time (UTC)temp
F
wind
direction
speed
MPH
gust
MPH
rain 1hr
in
rain 24hr
in
rain mn
in
humidity
%
barometer
mb
20260831192008 87 187 2.0 5.0 0.00 0.00 0.00 41 1019.2
20260831191512 86 193 0.0 6.0 0.00 0.00 0.00 42 1019.2
20260831191004 87 260 0.0 7.0 0.00 0.00 0.00 41 1019.4
20260831190504 87 131 3.0 7.0 0.00 0.00 0.00 41 1019.5
20260831190012 86 195 0.0 7.0 0.00 0.00 0.00 42 1019.5
20260831185505 86 166 1.0 7.0 0.00 0.00 0.00 42 1019.5
20260831185004 85 165 0.0 4.0 0.00 0.00 0.00 42 1019.5
20260831184510 85 191 1.0 4.0 0.00 0.00 0.00 42 1019.5
20260831184006 84 150 0.0 1.0 0.00 0.00 0.00 43 1019.5
20260831183504 84 149 0.0 3.0 0.00 0.00 0.00 44 1019.6
20260831183013 84 217 0.0 3.0 0.00 0.00 0.00 43 1019.8
20260831182504 84 169 0.0 1.0 0.00 0.00 0.00 41 1019.7
20260831182008 84 28 0.0 2.0 0.00 0.00 0.00 42 1019.9
20260831181512 84 86 0.0 3.0 0.00 0.00 0.00 40 1019.9
20260831181008 84 293 0.0 3.0 0.00 0.00 0.00 41 1020.0
20260831180507 84 23 0.0 4.0 0.00 0.00 0.00 44 1020.0
20260831180016 84 25 0.0 4.0 0.00 0.00 0.00 41 1020.0
20260831175506 84 341 0.0 5.0 0.00 0.00 0.00 40 1020.0
20260831175005 85 196 0.0 5.0 0.00 0.00 0.00 38 1020.0
20260831174516 85 122 1.0 5.0 0.00 0.00 0.00 40 1020.0
20260831174008 85 142 0.0 5.0 0.00 0.00 0.00 39 1020.0
20260831173510 85 169 0.0 4.0 0.00 0.00 0.00 39 1020.0
20260831173014 85 274 0.0 4.0 0.00 0.00 0.00 38 1020.1
20260831172508 85 93 0.0 3.0 0.00 0.00 0.00 39 1020.3
20260831172005 85 158 0.0 2.0 0.00 0.00 0.00 40 1020.4
20260831171518 84 158 0.0 2.0 0.00 0.00 0.00 39 1020.4
20260831171007 84 158 0.0 3.0 0.00 0.00 0.00 42 1020.4
20260831170510 84 158 0.0 4.0 0.00 0.00 0.00 41 1020.5
20260831170004 84 107 0.0 4.0 0.00 0.00 0.00 40 1020.5
20260831165504 84 140 1.0 4.0 0.00 0.00 0.00 40 1020.5
20260831165003 84 33 0.0 0.0 0.00 0.00 0.00 41 1020.6
20260831164513 84 33 0.0 2.0 0.00 0.00 0.00 41 1020.7
20260831164005 84 297 0.0 3.0 0.00 0.00 0.00 41 1020.7
20260831163506 84 198 0.0 3.0 0.00 0.00 0.00 40 1020.8
20260831163010 84 204 0.0 3.0 0.00 0.00 0.00 40 1020.7
20260831162504 84 56 0.0 3.0 0.00 0.00 0.00 40 1020.7
20260831162003 84 28 0.0 1.0 0.00 0.00 0.00 42 1020.8
20260831161507 84 346 0.0 4.0 0.00 0.00 0.00 44 1020.9
20260831161003 83 359 0.0 4.0 0.00 0.00 0.00 43 1020.9
20260831160505 83 97 0.0 4.0 0.00 0.00 0.00 40 1020.9
20260831160004 84 359 0.0 6.0 0.00 0.00 0.00 42 1020.9
20260831155503 84 354 0.0 6.0 0.00 0.00 0.00 41 1020.9
20260831155003 83 359 2.0 6.0 0.00 0.00 0.00 42 1021.0
20260831154515 83 18 0.0 3.0 0.00 0.00 0.00 46 1020.9
20260831154004 83 56 0.0 3.0 0.00 0.00 0.00 44 1021.0
20260831153507 83 338 0.0 5.0 0.00 0.00 0.00 45 1020.9
20260831153008 82 359 0.0 5.0 0.00 0.00 0.00 46 1020.9
20260831152505 82 352 0.0 3.0 0.00 0.00 0.00 45 1021.1
20260831152005 82 350 0.0 4.0 0.00 0.00 0.00 45 1021.3
20260831151513 82 359 1.0 6.0 0.00 0.00 0.00 45 1021.4
20260831151008 81 47 2.0 6.0 0.00 0.00 0.00 46 1021.5
20260831150507 81 64 0.0 5.0 0.00 0.00 0.00 46 1021.4
20260831150012 81 28 0.0 5.0 0.00 0.00 0.00 47 1021.5
20260831145505 80 358 1.0 5.0 0.00 0.00 0.00 48 1021.5
20260831145009 79 359 0.0 4.0 0.00 0.00 0.00 50 1021.6
20260831144514 78 18 0.0 3.0 0.00 0.00 0.00 51 1021.6
20260831144003 77 45 0.0 3.0 0.00 0.00 0.00 53 1021.6
20260831143504 76 44 0.0 2.0 0.00 0.00 0.00 54 1021.6
20260831143005 75 131 0.0 3.0 0.00 0.00 0.00 56 1021.6
20260831142505 74 134 0.0 3.0 0.00 0.00 0.00 57 1021.7
20260831142004 73 264 0.0 1.0 0.00 0.00 0.00 60 1021.7
20260831141508 72 230 0.0 4.0 0.00 0.00 0.00 62 1021.8
20260831141006 71 231 0.0 4.0 0.00 0.00 0.00 63 1021.7
20260831140508 69 92 0.0 2.0 0.00 0.00 0.00 65 1021.6
20260831140016 68 1 0.0 2.0 0.00 0.00 0.00 68 1021.7
20260831135508 67 3 0.0 0.0 0.00 0.00 0.00 68 1021.6
20260831135009 67 3 0.0 0.0 0.00 0.00 0.00 70 1021.6
20260831134514 66 3 0.0 2.0 0.00 0.00 0.00 72 1021.6
20260831134008 66 3 0.0 2.0 0.00 0.00 0.00 73 1021.6
20260831133507 65 13 0.0 0.0 0.00 0.00 0.00 74 1021.6
20260831133019 65 359 0.0 4.0 0.00 0.00 0.00 74 1021.6
20260831132504 65 359 1.0 4.0 0.00 0.00 0.00 75 1021.6
20260831132003 64 353 0.0 0.0 0.00 0.00 0.00 73 1021.5
20260831131508 64 354 0.0 3.0 0.00 0.00 0.00 75 1021.5
20260831131009 64 353 0.0 3.0 0.00 0.00 0.00 75 1021.6
20260831130507 64 7 0.0 3.0 0.00 0.00 0.00 74 1021.5
20260831130013 63 359 0.0 0.0 0.00 0.00 0.00 75 1021.4
20260831125508 63 359 0.0 0.0 0.00 0.00 0.00 77 1021.4
20260831125009 63 359 0.0 2.0 0.00 0.00 0.00 76 1021.5
20260831124520 62 359 0.0 2.0 0.00 0.00 0.00 79 1021.5
20260831124008 62 342 0.0 3.0 0.00 0.00 0.00 80 1021.5
20260831123511 62 359 0.0 6.0 0.00 0.00 0.00 81 1021.4
20260831123017 61 340 0.0 6.0 0.00 0.00 0.00 83 1021.4
20260831122510 61 1 1.0 6.0 0.00 0.00 0.00 85 1021.4
20260831122010 60 338 0.0 5.0 0.00 0.00 0.00 86 1021.4
20260831121517 60 325 0.0 4.0 0.00 0.00 0.00 88 1021.3
20260831121011 60 360 0.0 3.0 0.00 0.00 0.00 89 1021.3
20260831120503 59 20 0.0 2.0 0.00 0.00 0.00 91 1021.3
20260831120011 59 23 0.0 2.0 0.00 0.00 0.00 91 1021.3
20260831115507 59 149 0.0 0.0 0.00 0.00 0.00 93 1021.2
20260831115005 59 149 0.0 0.0 0.00 0.00 0.00 94 1021.2
20260831114513 58 149 0.0 0.0 0.00 0.00 0.00 94 1021.1
20260831114011 58 149 0.0 0.0 0.00 0.00 0.00 94 1021.0
20260831113512 58 149 0.0 0.0 0.00 0.00 0.00 94 1020.9
20260831113023 58 149 0.0 0.0 0.00 0.00 0.00 94 1020.9
20260831112513 58 149 0.0 0.0 0.00 0.00 0.00 94 1020.9
20260831112010 58 149 0.0 0.0 0.00 0.00 0.00 94 1020.9
20260831111525 58 149 0.0 0.0 0.00 0.00 0.00 94 1021.0
20260831111010 58 149 0.0 0.0 0.00 0.00 0.00 94 1021.0
20260831110510 57 149 0.0 0.0 0.00 0.00 0.00 93 1020.9
20260831110033 58 149 0.0 0.0 0.00 0.00 0.00 93 1020.8
20260831105514 58 149 0.0 0.0 0.00 0.00 0.00 93 1020.7
20260831105003 58 149 0.0 0.0 0.00 0.00 0.00 93 1020.7
20260831104523 58 149 0.0 0.0 0.00 0.00 0.00 93 1020.7
20260831104004 58 356 0.0 0.0 0.00 0.00 0.00 92 1020.6
20260831103511 58 14 0.0 0.0 0.00 0.00 0.00 92 1020.5
20260831103027 58 14 0.0 0.0 0.00 0.00 0.00 92 1020.5
20260831102510 58 14 0.0 0.0 0.00 0.00 0.00 92 1020.5
20260831102010 58 14 0.0 0.0 0.00 0.00 0.00 92 1020.6
20260831101528 58 14 0.0 0.0 0.00 0.00 0.00 92 1020.4
20260831101015 58 14 0.0 0.0 0.00 0.00 0.00 91 1020.3
20260831100512 58 14 0.0 0.0 0.00 0.00 0.00 91 1020.3
20260831100027 58 14 0.0 0.0 0.00 0.00 0.00 92 1020.3
20260831095510 59 14 0.0 0.0 0.00 0.00 0.00 91 1020.2
20260831095010 59 14 0.0 0.0 0.00 0.00 0.00 91 1020.1
20260831094527 59 14 0.0 0.0 0.00 0.00 0.00 91 1020.0
20260831094012 59 14 0.0 0.0 0.00 0.00 0.00 91 1020.0
20260831093514 59 14 0.0 0.0 0.00 0.00 0.00 91 1019.9
20260831093014 59 14 0.0 0.0 0.00 0.00 0.00 92 1019.8
20260831092508 59 14 0.0 0.0 0.00 0.00 0.00 92 1019.9
20260831092008 59 14 0.0 0.0 0.00 0.00 0.00 92 1019.8
20260831091535 60 14 0.0 0.0 0.00 0.00 0.00 91 1019.8
20260831091013 60 14 0.0 0.0 0.00 0.00 0.00 91 1019.7
20260831090513 60 14 0.0 0.0 0.00 0.00 0.00 91 1019.6
20260831090029 60 14 0.0 0.0 0.00 0.00 0.00 91 1019.5
20260831085516 60 14 0.0 0.0 0.00 0.00 0.00 91 1019.4
20260831085015 60 14 0.0 0.0 0.00 0.00 0.00 91 1019.4
20260831084527 60 14 0.0 0.0 0.00 0.00 0.00 91 1019.3
20260831084011 60 14 0.0 0.0 0.00 0.00 0.00 91 1019.3
20260831083516 61 14 0.0 0.0 0.00 0.00 0.00 90 1019.2
20260831083031 61 14 0.0 0.0 0.00 0.00 0.00 90 1019.3
20260831082514 61 14 0.0 0.0 0.00 0.00 0.00 90 1019.3
20260831082014 61 14 0.0 0.0 0.00 0.00 0.00 90 1019.3
20260831081536 61 14 0.0 0.0 0.00 0.00 0.00 90 1019.2
20260831081008 61 14 0.0 0.0 0.00 0.00 0.00 90 1019.2
20260831080510 61 14 0.0 0.0 0.00 0.00 0.00 90 1019.2
20260831080052 61 14 0.0 0.0 0.00 0.00 0.00 90 1019.1
20260831075512 62 14 0.0 0.0 0.00 0.00 0.00 90 1019.1
20260831075014 62 14 0.0 0.0 0.00 0.00 0.00 89 1019.0
20260831074531 62 14 0.0 0.0 0.00 0.00 0.00 89 1018.9
20260831074021 62 14 0.0 0.0 0.00 0.00 0.00 89 1018.8
20260831073516 62 14 0.0 0.0 0.00 0.00 0.00 89 1018.9
20260831073056 62 14 0.0 0.0 0.00 0.00 0.00 89 1018.9
20260831072505 62 14 0.0 0.0 0.00 0.00 0.00 89 1018.9
20260831072006 63 14 0.0 0.0 0.00 0.00 0.00 89 1018.9
20260831071512 63 14 0.0 0.0 0.00 0.00 0.00 89 1018.9
20260831071008 63 14 0.0 0.0 0.00 0.00 0.00 89 1018.8
20260831070511 63 14 0.0 0.0 0.00 0.00 0.00 88 1018.9
20260831070024 63 14 0.0 0.0 0.00 0.00 0.00 88 1018.9
20260831065515 63 14 0.0 0.0 0.00 0.00 0.00 88 1018.8
20260831065012 64 14 0.0 0.0 0.00 0.00 0.00 87 1018.7
20260831064526 64 14 0.0 0.0 0.00 0.00 0.00 87 1018.7
20260831064013 64 14 0.0 0.0 0.00 0.00 0.00 87 1018.8
20260831063515 64 14 0.0 0.0 0.00 0.00 0.00 86 1018.9
20260831063035 64 14 0.0 0.0 0.00 0.00 0.00 86 1018.8
20260831062516 65 14 0.0 0.0 0.00 0.00 0.00 85 1018.7
20260831062016 65 14 0.0 0.0 0.00 0.00 0.00 85 1018.8
20260831061532 65 14 0.0 0.0 0.00 0.00 0.00 85 1018.8
20260831061014 65 14 0.0 0.0 0.00 0.00 0.00 84 1018.7
20260831060508 66 14 0.0 0.0 0.00 0.00 0.00 84 1018.6
20260831060019 66 14 0.0 0.0 0.00 0.00 0.00 84 1018.5
20260831055510 66 14 0.0 0.0 0.00 0.00 0.00 83 1018.5
20260831055015 66 14 0.0 0.0 0.00 0.00 0.00 83 1018.5
20260831054520 66 14 0.0 0.0 0.00 0.00 0.00 83 1018.5
20260831054015 67 14 0.0 0.0 0.00 0.00 0.00 82 1018.5
20260831053513 67 14 0.0 0.0 0.00 0.00 0.00 82 1018.4
20260831053029 67 14 0.0 0.0 0.00 0.00 0.00 82 1018.3
20260831052515 67 14 0.0 0.0 0.00 0.00 0.00 81 1018.3
20260831052015 67 14 0.0 0.0 0.00 0.00 0.00 81 1018.4
20260831051535 68 14 0.0 0.0 0.00 0.00 0.00 80 1018.4
20260831051018 68 14 0.0 0.0 0.00 0.00 0.00 80 1018.4
20260831050516 68 14 0.0 0.0 0.00 0.00 0.00 80 1018.3
20260831050034 68 14 0.0 0.0 0.00 0.00 0.00 79 1018.3
20260831045517 68 14 0.0 0.0 0.00 0.00 0.00 79 1018.2
20260831045009 69 14 0.0 0.0 0.00 0.00 0.00 78 1018.1
20260831044516 69 14 0.0 0.0 0.00 0.00 0.00 78 1017.9
20260831044011 69 14 0.0 0.0 0.00 0.00 0.00 77 1017.7
20260831043512 69 14 0.0 0.0 0.00 0.00 0.00 76 1017.6
20260831043028 70 14 0.0 0.0 0.00 0.00 0.00 76 1017.5
20260831042514 70 14 0.0 0.0 0.00 0.00 0.00 76 1017.5
20260831042014 70 14 0.0 0.0 0.00 0.00 0.00 75 1017.5
20260831041530 70 15 0.0 2.0 0.00 0.00 0.00 75 1017.5
20260831041019 70 15 0.0 2.0 0.00 0.00 0.00 75 1017.5
20260831040517 71 336 0.0 2.0 0.00 0.00 0.00 75 1017.5
20260831040032 71 353 0.0 0.0 0.00 0.00 0.00 75 1017.5
20260831035519 71 352 0.0 3.0 0.00 0.00 0.00 75 1017.5
20260831035018 71 312 0.0 3.0 0.00 0.00 0.00 75 1017.5
20260831034533 71 357 0.0 3.0 0.00 0.00 0.00 76 1017.6
20260831034018 71 356 0.0 3.0 0.00 0.00 0.00 76 1017.6
20260831033516 71 356 0.0 3.0 0.00 0.00 0.00 76 1017.7
20260831033034 71 356 0.0 3.0 0.00 0.00 0.00 76 1017.7
20260831032511 71 357 0.0 2.0 0.00 0.00 0.00 77 1017.6
20260831032013 71 347 0.0 0.0 0.00 0.00 0.00 77 1017.6
20260831031525 71 347 0.0 0.0 0.00 0.00 0.00 77 1017.6
20260831031017 71 347 0.0 0.0 0.00 0.00 0.00 78 1017.7
20260831030519 71 347 0.0 0.0 0.00 0.00 0.00 78 1017.8
20260831030031 71 347 0.0 0.0 0.00 0.00 0.00 79 1017.8
20260831025515 71 347 0.0 0.0 0.00 0.00 0.00 80 1017.8
20260831025018 71 347 0.0 0.0 0.00 0.00 0.00 80 1017.7
20260831024534 71 347 0.0 3.0 0.00 0.00 0.00 80 1017.7
20260831024018 71 347 0.0 3.0 0.00 0.00 0.00 80 1017.4
20260831023517 71 178 0.0 0.0 0.00 0.00 0.00 82 1017.5
20260831023034 70 179 0.0 0.0 0.00 0.00 0.00 83 1017.5
20260831022518 70 198 0.0 0.0 0.00 0.00 0.00 84 1017.6
20260831022016 70 198 0.0 0.0 0.00 0.00 0.00 85 1017.5
20260831021541 70 198 0.0 0.0 0.00 0.00 0.00 85 1017.6
20260831021012 70 196 0.0 0.0 0.00 0.00 0.00 86 1017.6
20260831020514 70 196 0.0 0.0 0.00 0.00 0.00 87 1017.6
20260831020028 71 196 0.0 0.0 0.00 0.00 0.00 87 1017.6
20260831015505 71 196 0.0 0.0 0.00 0.00 0.00 87 1017.5
20260831015004 71 196 0.0 0.0 0.00 0.00 0.00 86 1017.5
20260831014511 71 196 0.0 0.0 0.00 0.00 0.00 86 1017.4
20260831014007 71 196 0.0 0.0 0.00 0.00 0.00 86 1017.5
20260831013507 71 196 0.0 0.0 0.00 0.00 0.00 85 1017.4
20260831013016 72 196 0.0 0.0 0.00 0.00 0.00 84 1017.2
20260831012509 72 196 0.0 0.0 0.00 0.00 0.00 83 1017.3
20260831012011 72 196 0.0 0.0 0.00 0.00 0.00 82 1017.2
20260831011535 72 196 0.0 0.0 0.00 0.00 0.00 81 1017.1
20260831011011 73 196 0.0 0.0 0.00 0.00 0.00 81 1017.1
20260831010511 73 196 0.0 0.0 0.00 0.00 0.00 81 1017.1
20260831010026 73 196 0.0 0.0 0.00 0.00 0.00 79 1017.0
20260831005515 73 196 0.0 0.0 0.00 0.00 0.00 76 1017.0
20260831005018 73 196 0.0 0.0 0.00 0.00 0.00 75 1017.0
20260831004534 73 196 0.0 0.0 0.00 0.00 0.00 75 1017.0
20260831004004 73 196 0.0 0.0 0.00 0.00 0.00 74 1016.8
20260831003507 73 196 0.0 0.0 0.00 0.00 0.00 74 1016.7
20260831003014 74 196 0.0 0.0 0.00 0.00 0.00 74 1016.7
20260831002506 74 196 0.0 0.0 0.00 0.00 0.00 74 1016.7
20260831002008 74 196 0.0 0.0 0.00 0.00 0.00 73 1016.6
20260831001532 74 196 0.0 0.0 0.00 0.00 0.00 73 1016.5
20260831001009 74 196 0.0 0.0 0.00 0.00 0.00 72 1016.5
20260831000511 75 196 0.0 0.0 0.00 0.00 0.00 72 1016.3
20260831000026 75 196 0.0 0.0 0.00 0.00 0.00 71 1016.3
20260830235512 75 196 0.0 0.0 0.00 0.00 0.00 70 1016.2
20260830235014 75 195 0.0 0.0 0.00 0.00 0.00 69 1016.3
20260830234530 75 195 0.0 0.0 0.00 0.00 0.00 68 1016.3
20260830234014 75 195 0.0 0.0 0.00 0.00 0.00 68 1016.2
20260830233516 75 195 0.0 1.0 0.00 0.00 0.00 67 1016.1
20260830233029 75 195 0.0 1.0 0.00 0.00 0.00 67 1016.0
20260830232513 76 180 0.0 1.0 0.00 0.00 0.00 67 1016.1
20260830232004 76 179 0.0 1.0 0.00 0.00 0.00 67 1016.1
20260830231512 76 180 0.0 2.0 0.00 0.00 0.00 66 1016.2
20260830231004 76 180 0.0 2.0 0.00 0.00 0.00 66 1016.1
20260830230512 76 138 0.0 1.0 0.00 0.00 0.00 66 1016.2
20260830230018 76 138 0.0 3.0 0.00 0.00 0.00 65 1016.2
20260830225510 76 133 0.0 3.0 0.00 0.00 0.00 65 1016.3
20260830225012 76 157 0.0 2.0 0.00 0.00 0.00 65 1016.3
20260830224524 77 178 0.0 2.0 0.00 0.00 0.00 64 1016.4
20260830224015 77 179 0.0 4.0 0.00 0.00 0.00 64 1016.5
20260830223515 77 150 0.0 4.0 0.00 0.00 0.00 64 1016.5
20260830223031 77 188 0.0 3.0 0.00 0.00 0.00 64 1016.5
20260830222521 77 188 0.0 3.0 0.00 0.00 0.00 63 1016.5
20260830222016 77 199 0.0 2.0 0.00 0.00 0.00 63 1016.5
20260830221533 77 174 0.0 5.0 0.00 0.00 0.00 63 1016.5
20260830221014 77 172 0.0 5.0 0.00 0.00 0.00 63 1016.6
20260830220504 78 189 0.0 3.0 0.00 0.00 0.00 62 1016.6
20260830220018 78 300 0.0 4.0 0.00 0.00 0.00 62 1016.6
20260830215512 78 131 0.0 4.0 0.00 0.00 0.00 63 1016.6
20260830215013 78 171 0.0 1.0 0.00 0.00 0.00 63 1016.6
20260830214521 78 171 0.0 1.0 0.00 0.00 0.00 63 1016.6
20260830214011 78 171 0.0 4.0 0.00 0.00 0.00 63 1016.6
20260830213515 78 171 0.0 4.0 0.00 0.00 0.00 63 1016.6
20260830213030 78 171 0.0 3.0 0.00 0.00 0.00 62 1016.5
20260830212515 78 171 0.0 3.0 0.00 0.00 0.00 62 1016.6
20260830212016 78 172 0.0 2.0 0.00 0.00 0.00 62 1016.7
20260830211531 78 171 0.0 2.0 0.00 0.00 0.00 62 1016.6
20260830211017 78 119 0.0 5.0 0.00 0.00 0.00 62 1016.7
20260830210513 78 195 0.0 5.0 0.00 0.00 0.00 61 1016.8
20260830210035 78 179 0.0 6.0 0.00 0.00 0.00 61 1016.8
20260830205516 79 185 0.0 6.0 0.00 0.00 0.00 61 1016.9
20260830205019 79 171 0.0 4.0 0.00 0.00 0.00 60 1016.9
20260830204530 79 201 0.0 8.0 0.00 0.00 0.00 60 1016.9
20260830204011 79 156 1.0 8.0 0.00 0.00 0.00 59 1016.8
20260830203511 79 160 1.0 7.0 0.00 0.00 0.00 60 1016.8
20260830203028 79 233 0.0 7.0 0.00 0.00 0.00 60 1016.8
20260830202513 79 184 2.0 7.0 0.00 0.00 0.00 59 1017.0
20260830202015 79 141 0.0 4.0 0.00 0.00 0.00 60 1017.0
20260830201530 79 167 0.0 7.0 0.00 0.00 0.00 59 1017.0
20260830201016 79 204 0.0 7.0 0.00 0.00 0.00 60 1017.1
20260830200521 79 136 0.0 5.0 0.00 0.00 0.00 59 1017.1
20260830200032 79 203 1.0 7.0 0.00 0.00 0.00 58 1017.0
20260830195506 80 176 2.0 7.0 0.00 0.00 0.00 58 1017.0
20260830195006 80 138 0.0 6.0 0.00 0.00 0.00 59 1017.1
20260830194502 80 195 0.0 3.0 0.00 0.00 0.00 59 1017.2
20260830194008 80 134 0.0 3.0 0.00 0.00 0.00 59 1017.3
20260830193502 80 120 0.0 3.0 0.00 0.00 0.00 58 1017.4
20260830193005 80 165 0.0 4.0 0.00 0.00 0.00 59 1017.5
20260830192502 80 174 0.0 4.0 0.00 0.00 0.00 58 1017.6